#timestamp,LO_Frequency,Hit,StdDev 
1511020815.6,286047009.1,P
1511020835.4,286047006.9,N
1511020855.2,286047005.3,N
1511020875.0,286047007.4,N
1511020875.9,286047007.4,N
1511020895.8,286047008.1,Y
1511020915.6,286047003.6,P
1511020935.4,286047003.5,P
1511020955.3,286047001.5,N
1511020975.1,286047005.9,Y
1511020995.9,286046997.8,P
1511021015.7,286046998.1,N
1511021035.5,286046999.5,N
1511021055.3,286046997.8,N
1511021075.2,286047000.6,N
1511021095.0,286047003.2,N
1511021095.9,286047003.2,N
1511021115.7,286046998.3,N
1511021135.6,286046994.1,N
1511021155.4,286046988.5,Y
1511021175.2,286046991.9,P
1511021195.1,286046993.5,N
1511021196.0,286046993.5,N
1511021215.8,286046990.5,Y
1511021235.7,286046996.6,P
1511021255.5,286046998.9,N
1511021275.3,286046996.9,N
1511021295.2,286046995.1,Y
1511021315.9,286047002.4,P
1511021335.7,286046998.3,N
1511021355.5,286046995.8,N
1511021375.4,286046996.4,N
1511021395.2,286046998.4,N
1511021415.0,286046999.8,N
1511021415.9,286046999.8,N
1511021435.8,286047002.7,N
1511021455.6,286046998.4,N
1511021475.4,286046998.6,N
1511021495.3,286047001.0,N
1511021515.1,286047004.0,N
1511021516.0,286047004.0,N
1511021535.8,286047001.6,N
1511021555.7,286046999.9,N
1511021575.5,286047000.2,N
1511021595.3,286047001.4,N
1511021615.2,286047003.5,N
1511021635.9,286047001.4,N
1511021655.7,286047003.2,N
1511021675.5,286046998.9,N
1511021695.4,286047001.2,N
1511021715.2,286047001.8,N
1511021735.0,286047002.2,N
1511021735.9,286047002.2,N
1511021755.8,286047005.9,N
1511021775.6,286047005.1,N
1511021795.4,286047005.7,N
1511021815.3,286047002.6,N
1511021835.1,286047002.0,N
1511021836.0,286047002.0,N
1511021855.8,286046999.2,N
1511021875.7,286047000.7,N
1511021895.5,286047001.0,N
1511021915.3,286047000.4,N
1511021935.2,286047004.4,N
1511021955.9,286047002.7,N
1511021975.7,286047001.9,N
1511021995.5,286047001.9,N
1511022015.4,286047000.2,N
1511022035.2,286047000.0,N
1511022055.0,286047003.8,N
1511022055.9,286047003.8,N
1511022075.8,286047000.9,N
1511022095.6,286047001.1,N
1511022115.4,286046999.8,N
1511022135.3,286047003.0,N
1511022155.1,286047005.5,Y
1511022175.8,286047001.5,P
1511022195.7,286047002.8,P
1511022215.5,286047002.6,P
1511022235.3,286046998.7,N
1511022255.2,286046995.2,Y
1511022275.0,286046993.3,P
1511022275.9,286046993.3,N
1511022295.7,286046999.5,N
1511022315.6,286046995.2,N
1511022335.4,286046992.7,N
1511022355.2,286046987.8,Y
1511022375.1,286046995.9,P
1511022376.0,286046995.9,P
1511022395.8,286046999.5,P
1511022415.6,286046993.6,Y
1511022435.5,286046992.3,P
1511022455.3,286046990.6,P
1511022475.1,286046993.5,N
1511022495.9,286046992.0,Y
1511022515.7,286047000.6,P
1511022535.5,286047000.1,N
1511022555.4,286047004.2,N
1511022575.2,286047006.0,N
1511022595.0,286047009.7,N
1511022595.9,286047009.7,N
1511022615.8,286047010.9,N
1511022635.6,286047013.5,N
1511022655.4,286047015.5,N
1511022675.3,286047018.3,N
1511022695.1,286047017.9,N
1511022696.0,286047017.9,N
1511022715.8,286047015.7,N
1511022735.7,286047017.6,N
1511022755.5,286047022.7,Y
1511022775.3,286047013.4,P
1511022795.2,286047014.3,P
1511022815.9,286047013.6,P
1511022835.7,286047013.3,Y
1511022855.6,286046999.0,P
1511022875.4,286046997.5,N
1511022895.2,286046997.8,N
1511022915.1,286046994.0,N
1511022916.0,286046994.0,N
1511022935.8,286046993.9,N
1511022955.6,286046996.1,N
1511022975.4,286046995.3,N
1511022995.3,286046993.9,N
1511023015.1,286046996.2,N
1511023035.8,286046997.2,N
1511023055.7,286047000.7,N
1511023075.5,286047003.9,N
1511023095.3,286046999.4,N
1511023115.2,286046998.6,N
1511023135.9,286047000.3,N
1511023155.7,286047002.4,N
1511023175.6,286047000.9,N
1511023195.4,286046999.8,N
1511023215.2,286046998.2,N
1511023235.0,286047005.8,N
1511023236.0,286047005.8,N
1511023255.8,286047002.5,N
1511023275.6,286047001.1,N
1511023295.4,286047001.7,N
1511023315.3,286047002.5,N
1511023335.1,286047001.7,N
1511023355.8,286047001.7,N
1511023375.7,286047005.2,N
1511023395.5,286047003.1,N
1511023415.3,286047002.3,N
1511023435.2,286047002.6,N
1511023455.9,286046999.9,N
1511023475.7,286046998.3,N
1511023495.6,286046998.0,N
1511023515.4,286046993.5,N
1511023535.2,286046994.0,N
1511023555.0,286046990.3,N
1511023556.0,286046990.3,N
1511023575.8,286046994.4,N
1511023595.6,286046994.0,N
1511023615.4,286046993.3,N
1511023635.3,286046995.4,N
1511023655.1,286046995.2,N
1511023675.8,286046994.9,N
1511023695.7,286046996.1,N
1511023715.5,286046996.5,N
1511023735.3,286046999.4,N
1511023755.2,286046995.2,N
1511023775.9,286046993.5,N
1511023795.7,286046994.4,N
1511023815.6,286046992.3,N
1511023835.4,286046991.6,N
1511023855.2,286046990.9,N
1511023875.1,286046993.1,N
1511023876.0,286046993.1,N
1511023895.8,286046992.1,N
1511023915.6,286046991.5,N
1511023935.4,286046992.8,N
1511023955.3,286046992.1,N
1511023975.1,286046994.3,N
1511023995.8,286046992.2,N
1511024015.7,286046992.2,Y
1511024035.5,286046997.6,P
1511024055.3,286046995.1,N
1511024075.2,286046992.3,P
1511024095.0,286046992.3,Y
1511024095.9,286046992.3,P
1511024115.8,286047000.7,N
1511024135.6,286047001.6,N
1511024155.4,286047002.5,N
1511024175.2,286047004.4,N
1511024195.1,286047003.7,N
1511024196.0,286047003.7,N
1511024215.8,286047006.0,N
1511024235.6,286047006.9,N
1511024255.5,286047005.1,N
1511024275.3,286047008.7,N
1511024295.1,286047008.6,N
1511024315.9,286047009.1,N
1511024335.7,286047013.7,N
1511024355.5,286047012.2,N
1511024375.4,286047012.3,N
1511024395.2,286047011.8,N
